Wind_Speed
16 15 13 11 9 7 6 5 5 4 2 9 16 23 25 26 26 26 24 23 23 23 22 22 21 20 18 16 15 13 12 11 9 8 7 6 6 5 5 5 6 6 7 8 9 10 11 12 13 12 11 11 10 9 9 10 11 13 14 13 11 10 12 13 15 16 17 18 19 19 19 19 19 20 21 22 24 24 25 26 28 29 29 28 27
19 18 17 14 11 9 8 5 4 4 4 6 12 18 23 24 24 24 23 21 20 20 20 20 20 20 19 18 16 15 13 12 10 9 7 6 4 3 2 2 3 3 4 5 5 6 7 9 10 10 10 9 9 8 7 9 11 12 13 13 12 12 13 14 15 17 18 18 18 18 17 17 17 18 19 20 21 22 23 23 24 24 25 25 24
21 20 20 18 15 12 10 9 7 6 6 8 11 16 21 24 25 24 23 21 20 19 19 19 19 19 19 18 18 17 16 14 13 12 10 8 6 4 3 2 2 2 2 2 3 3 4 5 7 8 8 7 7 7 6 7 10 11 11 12 13 13 13 14 15 16 17 17 17 16 16 15 15 16 16 18 20 20 21 20 20 20 20 20 20
25 23 23 22 19 16 14 13 12 9 8 9 11 14 19 23 25 25 24 22 22 21 21 21 20 19 18 18 18 18 18 17 16 15 13 11 9 7 6 5 5 4 4 3 3 2 1 1 3 5 5 5 5 6 6 6 8 9 10 11 12 12 12 13 14 15 15 15 15 14 14 13 13 13 14 16 17 17 17 17 16 16 15 14 14
26 23 24 26 24 21 18 16 15 14 12 12 12 14 17 21 24 25 25 24 23 23 22 22 21 21 20 20 20 19 19 18 18 17 15 14 12 11 10 9 9 8 7 6 5 4 3 2 1 0 2 3 2 3 5 6 7 9 10 11 12 12 11 11 11 12 13 13 13 13 12 12 11 11 12 13 14 13 13 12 11 11 10 9 8
26 21 22 27 28 26 22 20 19 18 17 16 15 15 18 21 23 25 25 26 25 24 23 22 22 22 22 22 22 22 21 21 20 19 18 17 15 15 14 13 13 12 11 10 8 7 6 5 4 4 3 2 2 2 4 7 8 9 11 12 12 12 12 12 11 11 11 11 12 12 12 11 11 10 10 11 10 10 9 8 6 4 4 3 2
32 25 22 25 31 32 28 24 24 23 22 21 19 18 19 21 23 25 26 27 27 27 25 24 24 24 24 24 24 24 24 23 22 21 20 19 18 18 17 16 16 15 14 13 11 10 9 8 7 7 7 6 5 4 5 7 10 11 12 13 13 13 13 13 13 13 13 13 13 13 12 12 11 10 9 9 9 8 7 7 6 4 2 2 3
39 34 27 26 33 36 33 30 29 27 26 26 25 23 22 23 24 25 27 29 29 29 28 27 27 27 26 26 26 25 25 24 24 23 22 22 21 20 19 19 18 17 17 16 15 14 12 11 10 12 12 10 9 9 10 11 11 13 14 14 14 15 15 15 16 16 16 15 15 15 13 13 12 11 10 11 11 10 10 10 10 9 8 7 7
43 41 34 31 36 39 36 35 35 33 30 30 29 28 27 26 26 26 27 28 30 30 30 30 30 29 29 29 29 28 27 26 25 24 24 25 24 23 22 21 21 20 19 19 18 17 16 14 14 15 15 13 12 13 15 13 12 14 16 16 16 17 17 17 18 18 18 17 17 16 16 15 14 13 13 15 15 15 15 16 16 15 14 13 13
43 45 42 38 41 44 42 41 40 37 35 33 32 31 31 30 29 28 28 29 30 31 31 31 31 31 31 31 31 30 28 28 27 26 26 26 25 25 24 23 22 22 21 21 20 19 19 18 19 19 18 15 14 16 17 16 15 16 18 19 20 20 20 20 20 20 20 20 19 19 18 19 19 18 19 20 20 19 19 18 19 19 19 19 19
41 44 46 43 41 44 45 43 41 41 40 38 36 35 34 34 33 32 31 30 31 31 31 32 32 32 32 32 32 31 30 29 28 28 27 27 26 26 26 24 23 23 23 23 22 22 21 22 23 23 20 18 18 20 21 20 19 19 20 21 23 24 25 25 24 24 24 24 24 23 23 24 24 24 25 25 23 22 21 20 20 21 22 22 22
47 48 49 46 42 43 45 43 41 42 43 42 41 40 38 38 37 37 36 34 33 33 32 32 33 32 32 33 34 32 31 30 30 30 29 28 27 28 27 26 25 24 24 24 24 25 25 25 26 26 23 22 23 24 24 24 22 22 22 23 24 26 28 29 29 30 30 29 29 29 29 29 29 28 29 28 26 25 24 23 23 23 24 24 24
55 54 53 49 44 41 42 42 43 44 45 45 44 43 43 42 42 41 40 39 38 36 34 33 33 33 33 34 34 33 32 31 31 31 31 30 29 30 29 28 26 26 25 25 26 28 28 29 29 29 27 27 27 27 27 27 25 24 24 24 25 27 28 30 32 34 35 35 34 34 33 32 31 30 29 29 27 26 26 25 25 25 25 25 25
57 57 56 52 47 43 41 41 43 45 46 47 47 46 45 45 46 45 43 42 41 40 38 35 34 34 35 34 33 34 34 32 31 32 32 30 29 30 31 30 29 28 27 27 28 30 30 30 31 31 30 30 30 29 29 29 29 27 26 25 26 26 27 29 31 33 35 36 36 35 33 32 31 29 29 29 28 27 27 27 26 26 25 25 25
59 60 60 58 55 53 52 50 49 49 48 48 48 48 48 48 49 49 47 45 44 43 41 39 38 38 37 35 33 35 35 34 33 32 32 31 30 30 30 30 30 29 29 29 29 30 31 32 32 32 32 32 32 31 30 31 31 30 28 27 26 27 27 28 29 31 33 34 34 34 32 30 30 29 29 29 29 29 29 29 28 27 27 27 26
64 64 64 63 62 60 59 59 58 56 53 50 49 49 50 52 52 52 51 49 47 46 44 43 42 41 41 40 38 37 37 36 34 33 33 33 33 32 31 30 30 29 29 29 30 32 33 34 34 35 35 35 34 33 33 32 32 31 31 31 31 30 29 29 29 31 32 32 33 33 32 31 30 30 30 29 29 31 32 33 31 29 29 31 31
68 67 66 66 65 63 61 60 60 58 55 52 52 53 54 55 55 55 54 52 51 49 47 46 45 44 44 44 43 41 40 39 38 37 37 37 36 35 34 33 31 30 30 31 34 37 37 37 38 39 39 38 37 37 37 36 35 35 35 35 35 35 34 33 33 34 34 34 35 35 34 34 33 33 33 32 31 33 34 34 32 31 33 36 37
70 69 68 68 67 66 63 60 61 62 58 55 55 57 58 58 59 58 57 56 54 53 51 49 48 47 47 47 46 44 43 43 43 42 41 41 39 38 36 35 34 33 33 35 39 41 39 39 41 42 43 42 40 40 40 40 40 39 38 39 39 39 39 38 38 38 38 39 39 38 38 37 36 36 36 36 35 35 35 36 35 34 34 36 37
73 72 71 71 69 68 67 64 64 65 63 60 60 61 60 59 58 60 60 58 56 55 54 53 52 51 50 50 49 48 46 46 46 46 45 43 41 39 38 38 37 36 35 37 41 42 42 42 43 44 45 46 44 43 44 44 44 43 43 42 41 42 43 42 42 42 42 42 43 43 42 41 40 40 39 39 39 38 37 38 38 38 38 38 39
77 76 76 75 73 72 71 70 69 69 67 65 64 66 66 63 59 59 60 60 60 58 57 57 56 56 55 54 53 52 51 49 49 49 48 47 45 42 41 40 39 38 38 39 42 44 45 45 47 48 48 49 49 48 46 45 46 47 47 46 45 45 45 45 45 45 45 45 46 46 46 45 44 44 44 43 42 42 42 41 41 41 41 43 43
76 78 79 79 78 76 74 73 74 73 72 70 69 69 71 70 66 63 61 62 63 64 62 61 61 60 60 59 58 56 55 53 52 52 51 50 49 47 45 43 41 41 42 43 45 48 48 48 49 50 50 51 52 51 50 49 49 49 49 50 50 50 49 49 49 49 49 49 49 49 49 49 49 48 48 47 46 46 46 45 45 45 45 46 46
77 78 80 82 82 81 78 76 76 76 75 75 74 73 74 73 73 71 69 67 66 66 66 65 64 64 64 64 63 61 60 58 56 56 55 54 53 52 50 49 47 45 45 47 48 50 52 52 52 53 54 55 55 55 54 54 53 52 52 53 54 55 55 55 54 53 52 52 52 52 53 53 52 52 51 51 50 49 49 49 49 49 49 49 50
79 79 82 84 84 83 81 80 79 78 78 78 79 79 78 78 78 77 75 71 69 68 68 68 68 67 67 67 66 65 64 63 61 60 59 58 57 56 55 55 54 52 52 52 52 51 52 55 57 58 58 59 60 60 58 57 56 56 56 56 57 58 59 59 58 57 56 56 55 56 56 56 56 55 54 54 54 53 53 53 53 53 53 53 53
81 82 84 85 86 85 84 83 82 82 82 82 82 83 83 83 82 80 78 76 74 74 73 74 73 72 71 70 70 69 68 67 66 64 63 62 61 60 59 60 60 59 58 59 59 58 57 58 60 62 62 62 63 64 63 62 60 59 59 60 60 61 61 62 61 60 60 60 60 60 60 59 59 58 58 58 58 58 57 57 57 58 57 57 58
87 85 85 85 86 87 86 86 86 86 85 86 86 86 86 85 85 84 83 82 81 80 79 79 80 78 76 75 74 73 72 71 70 69 68 67 66 64 64 64 65 65 64 65 66 66 66 65 66 66 65 64 64 65 66 65 64 63 63 64 64 63 63 64 64 64 64 65 65 65 65 64 63 63 62 62 63 63 63 62 62 61 61 61 61
94 91 88 86 87 88 88 89 88 88 88 88 89 89 89 88 88 88 87 87 87 85 84 83 84 84 82 81 79 78 77 76 75 74 73 72 70 69 69 68 68 69 69 69 70 71 72 72 73 72 71 70 69 68 68 68 68 67 67 67 67 67 66 66 66 67 68 68 69 69 69 69 68 68 67 67 67 67 67 67 66 66 65 65 65
98 97 95 93 91 90 90 90 90 89 88 88 88 89 90 89 88 88 88 88 88 87 86 86 86 87 86 85 84 83 82 81 80 79 78 77 76 75 75 74 74 74 74 74 74 75 75 76 77 77 77 77 76 75 73 72 72 72 72 71 71 70 69 67 67 68 69 70 71 71 71 71 72 72 72 72 71 71 71 70 69 69 69 70 69
99 99 100 99 99 98 97 96 95 94 92 90 89 88 89 89 88 87 87 86 86 86 86 86 87 88 89 89 88 87 87 86 85 84 83 82 81 80 80 80 80 79 79 79 79 79 79 78 78 78 79 81 81 81 80 79 78 76 76 76 76 76 75 73 72 72 72 72 73 73 73 73 73 74 74 74 74 74 74 73 72 72 72 72 73
98 100 101 101 102 103 104 103 103 101 100 98 95 93 92 90 88 87 87 88 88 87 86 86 87 88 89 91 91 91 91 91 91 90 89 88 86 85 84 84 84 83 83 83 83 83 83 83 82 81 81 82 83 84 85 84 84 83 82 81 81 82 82 82 81 79 78 76 76 76 76 76 75 75 75 76 76 76 76 76 75 74 74 74 74
93 96 99 100 102 104 105 107 108 107 105 104 102 101 99 97 94 92 90 89 89 89 89 88 88 89 89 91 91 92 92 92 93 94 93 93 92 91 90 88 88 87 87 86 87 87 87 87 87 87 86 85 86 86 87 88 88 88 87 87 87 86 86 86 85 84 82 80 79 79 79 79 79 78 78 78 79 79 79 78 78 78 78 78 78
87 90 93 96 99 102 104 106 108 109 108 107 105 103 103 102 101 99 96 94 92 91 90 90 91 92 92 93 93 93 93 93 93 94 95 95 96 96 95 95 93 92 91 91 91 91 91 91 91 91 91 91 90 90 90 91 92 92 91 92 91 91 90 90 89 89 88 87 85 84 84 84 85 85 84 84 83 83 82 82 83 83 83 84 83
81 85 88 91 94 97 100 103 105 107 108 108 106 104 103 103 103 102 101 100 98 96 94 92 92 93 95 96 96 96 96 96 96 96 96 97 98 98 99 99 99 98 97 96 96 95 95 95 95 94 95 95 95 95 95 95 95 96 96 96 96 96 96 95 95 95 95 95 94 93 92 92 92 93 93 93 91 89 88 87 87 86 87 87 87
74 78 82 86 89 92 95 98 101 103 105 106 106 104 102 101 101 101 101 101 102 102 101 99 97 96 96 97 98 98 99 99 99 99 99 99 100 100 101 101 101 101 101 101 100 100 100 100 100 100 100 99 99 99 99 99 99 99 99 99 100 101 101 101 101 102 102 102 102 102 101 101 101 101 101 101 100 98 95 94 92 92 91 91 91
69 72 76 79 83 86 89 93 96 99 101 103 104 104 102 101 100 99 99 99 100 102 104 104 103 101 99 99 100 101 102 102 103 103 103 103 103 103 103 103 103 104 104 104 103 104 104 104 104 105 105 106 106 105 105 105 105 105 104 103 103 104 105 105 106 107 107 108 108 107 107 107 107 107 107 107 106 105 103 100 98 97 96 96 95
67 69 71 73 77 80 83 86 90 93 96 98 100 101 102 102 101 100 99 99 98 99 100 102 103 103 102 102 102 103 104 105 106 106 106 107 107 107 107 107 107 107 107 106 106 106 106 106 107 107 108 109 110 110 111 111 110 110 110 110 109 109 109 109 109 110 110 111 111 111 111 111 110 110 110 110 110 109 108 106 104 102 100 100 99
66 67 68 70 72 75 77 80 83 86 88 91 93 96 98 99 99 99 99 99 99 99 99 99 100 101 102 102 103 104 105 106 108 109 110 110 110 111 110 110 111 111 110 110 110 110 110 110 110 110 110 110 110 111 112 114 114 115 115 115 115 115 115 114 114 113 113 113 113 113 113 113 113 112 112 112 112 112 111 111 109 108 107 106 105
67 67 67 68 69 71 73 76 78 80 82 84 87 89 91 93 95 96 97 98 98 99 99 100 100 100 100 101 103 104 106 107 108 109 111 112 113 114 114 115 115 114 114 114 114 114 114 114 114 114 114 114 113 113 113 113 114 115 117 117 118 119 119 119 119 118 118 117 116 116 116 115 115 115 115 114 114 114 114 114 114 114 113 113 112
67 68 68 68 69 70 72 74 75 76 78 79 81 84 86 87 89 91 93 94 95 97 97 99 100 101 101 101 102 103 105 108 109 111 112 112 113 114 115 117 118 118 118 118 118 118 118 119 119 119 119 119 119 118 118 117 117 117 117 117 117 118 119 120 121 121 121 121 121 120 120 119 118 118 118 117 117 116 116 116 117 117 117 117 117
66 67 68 69 69 70 71 73 74 75 77 78 79 80 82 84 85 87 90 91 93 95 96 97 98 100 101 101 102 102 103 106 108 111 113 115 116 117 117 118 118 119 120 121 122 123 123 123 124 124 124 124 124 125 125 124 124 123 122 122 121 120 120 120 120 121 122 122 123 123 123 123 122 122 121 121 120 119 119 119 118 118 118 118 118
64 66 67 68 69 70 72 73 74 75 77 78 79 80 81 82 83 85 87 89 91 93 95 97 98 100 101 102 103 103 103 104 105 108 111 114 117 119 121 122 122 121 121 122 123 124 125 126 127 128 128 129 130 130 131 131 131 130 130 129 128 127 126 125 124 124 123 123 124 124 125 125 125 125 125 124 124 123 123 122 121 120 119 119 118
61 63 65 66 68 70 72 73 74 75 77 78 79 80 81 82 83 84 85 87 89 91 93 95 96 99 101 102 103 104 104 104 105 106 108 111 114 117 120 123 125 126 127 127 127 127 127 128 129 129 130 131 132 133 134 135 135 135 135 134 134 133 132 131 130 130 129 128 128 128 128 128 128 128 128 127 127 127 126 126 125 125 124 123 122
56 59 61 64 66 68 70 72 74 75 76 78 79 81 81 82 83 84 85 86 87 88 89 91 92 94 97 99 101 102 103 104 105 106 107 109 111 113 116 119 122 125 128 130 131 132 132 133 133 134 134 134 134 135 135 136 137 137 138 138 137 137 136 136 135 135 134 134 133 133 132 132 132 132 132 132 131 131 130 130 130 130 129 128 128
49 52 55 58 61 63 66 68 71 73 75 77 79 80 81 83 84 85 85 86 87 88 89 90 91 92 94 95 97 98 100 102 104 106 107 108 110 111 113 115 117 120 123 126 129 131 134 136 137 139 139 140 140 140 140 140 140 140 140 140 140 140 140 140 140 140 139 139 138 138 137 137 137 136 136 136 136 136 136 135 135 135 134 134 134
42 45 49 52 55 58 60 63 65 68 71 74 76 79 81 82 84 85 86 87 88 89 90 90 91 92 93 95 95 96 97 99 101 103 105 107 108 110 112 113 115 117 120 122 125 127 130 133 136 138 140 142 144 145 146 146 146 145 144 144 143 143 143 143 143 143 143 143 143 143 142 142 142 142 141 141 141 141 141 141 140 140 139 139 139
37 40 43 46 49 52 55 58 60 63 65 68 71 73 76 79 81 84 86 87 89 89 90 91 92 94 95 96 97 97 98 99 100 101 103 105 106 108 110 111 113 115 117 120 122 125 127 130 132 135 137 140 143 145 147 148 149 149 149 149 148 148 148 148 148 148 148 148 148 148 147 147 147 146 146 146 146 145 145 145 145 144 144 144 144
31 34 37 40 43 46 49 53 55 58 60 62 65 67 70 72 75 77 80 82 84 86 87 89 90 92 93 95 96 97 97 98 99 100 101 102 104 105 106 108 110 112 114 116 119 121 124 127 129 132 135 137 140 142 144 145 146 147 148 149 150 151 152 152 152 152 153 153 153 154 154 154 153 153 152 152 151 151 150 150 149 149 149 148 148
25 27 30 32 35 38 41 44 47 50 53 56 58 60 63 65 68 70 72 74 76 79 80 82 84 85 87 89 90 91 92 93 94 95 96 97 98 100 101 103 105 107 109 111 114 116 119 122 125 128 131 134 137 139 140 142 143 144 145 146 147 149 150 151 152 153 154 154 155 155 156 156 156 156 156 156 156 156 156 156 155 155 154 154 153
22 24 25 27 29 31 33 36 38 41 44 46 49 51 54 56 59 61 63 65 68 70 72 74 75 77 79 80 82 83 84 85 86 87 89 90 92 93 95 97 99 101 103 105 107 110 113 116 119 122 125 128 131 133 135 136 138 139 140 141 142 143 145 146 148 149 150 151 153 153 154 155 155 156 156 156 156 156 157 157 157 157 157 157 157
23 24 25 26 27 28 30 32 33 36 38 40 42 44 47 49 51 53 55 57 59 61 63 65 67 69 70 72 74 75 76 77 78 79 81 83 85 87 89 91 93 95 97 99 101 104 107 109 112 115 118 120 122 124 126 127 128 129 130 131 132 133 135 136 138 140 141 143 145 146 148 149 150 151 151 152 152 153 154 154 155 155 155 156 156
24 25 26 27 28 29 31 32 34 35 37 39 41 44 46 47 49 50 52 54 56 57 59 61 62 64 66 67 69 70 71 73 74 76 78 79 81 82 84 86 88 90 92 94 97 99 101 104 106 109 111 112 113 114 115 116 117 117 118 118 119 121 122 123 125 126 128 129 131 133 134 135 136 137 138 139 140 141 141 143 144 145 146 146 147
27 28 28 29 29 30 31 33 34 36 38 40 43 45 47 49 50 52 53 55 56 57 59 60 62 63 65 66 67 68 69 71 73 74 76 77 78 80 81 83 85 87 90 92 94 95 97 99 101 103 105 106 107 107 107 108 108 108 109 109 110 111 112 113 114 115 116 117 118 119 120 121 121 122 122 123 124 124 125 126 127 128 129 129 130
Wind_Direction
272 270 270 274 282 293 308 328 337 322 219 185 183 184 184 183 181 178 177 176 176 177 178 179 181 182 183 183 182 180 178 176 173 166 157 146 134 118 99 82 71 63 61 61 63 67 70 73 77 88 98 100 96 96 107 119 126 134 142 149 152 152 152 150 147 144 142 141 138 135 132 127 123 120 116 113 110 109 107 107 106 103 98 92 88
269 268 267 265 263 269 278 289 301 291 256 212 194 191 191 190 188 186 186 185 185 185 186 187 189 190 192 193 193 193 194 194 194 192 189 184 177 163 131 70 46 40 42 44 49 57 66 71 75 82 95 107 109 107 118 137 144 146 151 160 166 165 160 156 153 150 147 145 143 139 135 131 127 124 121 118 116 114 112 110 109 108 104 99 94
258 261 263 259 254 254 260 262 258 249 240 227 209 199 196 195 194 194 194 194 194 196 196 197 199 200 202 203 203 203 204 205 208 210 212 213 216 222 236 262 304 333 349 2 12 32 54 71 78 80 87 103 120 128 136 154 163 163 165 171 174 169 163 159 156 153 151 149 145 142 138 135 133 130 127 125 124 121 117 113 111 110 108 106 101
239 247 254 256 253 249 250 254 255 249 239 233 224 213 205 201 200 200 199 200 201 203 205 205 207 209 212 214 215 215 214 215 216 219 222 226 231 238 248 258 267 280 287 290 291 306 330 81 88 83 85 92 117 146 157 170 181 187 189 188 184 177 170 165 163 160 156 153 151 148 146 144 143 141 138 135 132 129 124 119 117 115 112 110 104
230 234 243 250 252 250 247 247 251 249 241 232 227 223 217 212 209 207 206 206 208 209 211 212 213 216 218 220 222 224 225 224 225 227 229 233 238 244 250 255 257 257 259 257 255 260 261 245 234 157 114 102 111 161 177 187 200 206 204 198 195 193 187 182 178 173 167 163 162 160 159 159 159 157 153 148 142 138 135 130 125 121 120 119 110
231 226 233 245 250 249 246 242 242 244 243 236 229 225 223 221 218 215 213 214 216 217 217 217 218 220 221 222 223 226 229 231 233 234 235 237 240 244 249 252 253 252 252 250 246 246 244 236 240 247 236 215 212 203 200 203 210 215 210 203 202 203 203 202 200 194 188 183 181 178 175 175 175 175 173 167 161 158 156 154 149 140 129 130 124
233 227 224 236 244 244 242 241 239 241 243 240 236 231 227 226 224 221 220 221 223 224 223 223 224 225 226 226 226 227 230 233 236 238 239 240 241 243 246 250 252 252 254 253 249 244 237 227 233 248 253 251 243 240 243 231 221 221 220 215 212 211 211 213 212 210 206 202 199 196 193 193 194 196 200 201 199 197 200 203 206 219 241 266 288
234 231 226 231 240 243 243 242 240 240 242 242 240 238 236 232 228 225 224 226 228 229 228 228 229 230 230 230 230 230 231 232 235 238 239 241 241 242 244 247 249 250 252 253 251 247 240 232 237 246 246 246 241 237 241 238 227 226 230 229 227 222 219 219 218 215 213 208 205 204 206 209 214 221 232 237 236 236 240 243 245 248 252 261 276
235 231 226 228 237 240 240 240 240 240 241 241 241 240 240 239 235 230 227 228 230 231 231 231 232 233 233 233 233 234 234 235 236 238 242 245 245 243 243 245 246 248 249 249 249 248 244 239 240 242 239 238 238 235 237 236 230 230 232 232 233 232 228 226 223 219 216 213 211 212 217 224 232 241 251 255 254 254 258 261 261 262 263 266 272
235 232 229 232 237 238 236 236 239 240 240 239 239 240 240 240 240 237 233 231 231 232 231 231 232 233 234 235 235 235 236 236 238 239 243 247 247 246 245 245 245 247 248 249 248 246 245 245 247 245 241 240 242 241 242 243 240 236 234 230 230 231 232 233 231 227 224 224 225 228 233 239 246 253 258 260 259 257 259 262 262 263 267 270 273
228 228 229 234 239 240 238 237 239 241 240 237 236 239 240 239 239 239 237 236 234 234 233 232 232 233 235 236 236 235 235 236 237 239 243 248 250 250 249 247 246 247 248 248 248 247 246 248 251 250 247 246 248 247 247 248 246 241 237 232 229 229 231 234 236 235 235 236 237 240 244 249 252 256 259 261 261 261 262 263 264 265 268 271 272
224 224 225 228 234 239 241 242 242 243 242 239 236 236 238 239 238 237 238 238 237 235 235 234 235 236 237 237 237 237 237 237 238 240 243 248 252 254 253 250 248 247 247 247 249 250 250 251 253 255 254 253 252 251 249 249 247 244 239 235 232 231 231 233 235 237 240 243 244 246 249 252 253 255 258 260 261 264 267 270 272 273 273 273 272
225 226 224 224 229 237 241 242 243 241 242 242 238 236 236 238 238 238 238 238 238 237 237 236 237 238 239 239 240 240 239 239 241 243 246 249 253 255 255 252 251 250 248 249 251 253 254 256 257 257 257 256 255 253 251 250 249 247 242 237 235 234 234 234 236 238 241 243 245 246 249 251 253 254 258 261 262 265 269 273 275 278 277 274 273
225 227 225 222 222 227 230 232 234 236 238 241 240 238 237 237 238 239 240 239 238 238 238 238 238 240 241 241 243 243 241 240 241 245 247 249 254 256 255 253 254 254 254 254 255 256 257 257 259 259 258 257 255 254 252 250 248 247 244 241 239 238 237 237 238 240 242 243 244 245 247 251 255 256 258 262 264 266 268 270 273 275 276 274 273
226 227 226 224 222 223 226 229 232 235 238 241 242 240 239 238 238 238 240 240 240 240 239 239 239 241 243 244 244 244 242 241 243 246 248 249 254 256 255 254 255 257 258 258 258 259 259 258 258 259 258 257 256 254 253 251 249 248 248 247 246 244 243 241 242 243 245 246 246 246 246 249 253 255 257 260 265 268 269 270 270 270 270 273 274
228 229 229 228 227 226 228 231 234 238 240 242 243 242 242 242 239 237 239 240 241 241 241 240 241 242 243 243 244 244 243 243 245 247 248 250 252 253 253 253 254 257 261 264 263 261 259 258 256 256 256 256 256 255 254 253 252 251 251 250 249 249 249 248 247 248 249 249 249 250 250 251 253 255 257 259 265 270 273 273 271 268 270 274 277
229 230 230 231 230 230 231 231 233 236 237 239 241 241 242 243 241 238 238 239 240 241 241 241 242 243 243 244 244 244 244 246 248 249 249 250 251 252 252 253 254 256 258 262 263 261 260 259 258 257 257 257 256 256 256 255 254 253 252 252 252 253 253 253 253 254 254 254 254 254 255 255 256 258 261 262 263 266 269 271 272 271 273 277 278
231 231 232 232 232 232 233 233 232 233 233 235 238 239 241 243 243 240 239 239 240 242 242 242 243 244 245 245 245 245 244 245 248 251 252 251 251 252 254 254 255 256 256 257 258 259 260 261 261 260 260 260 259 259 258 257 256 254 253 253 254 255 257 257 257 258 259 260 260 260 260 259 259 260 262 263 262 261 260 263 265 266 269 271 272
232 233 233 233 233 234 235 234 233 232 232 232 235 237 239 242 242 240 239 240 241 242 244 244 244 244 245 246 247 247 246 245 247 250 252 251 250 252 256 257 257 257 259 259 259 259 259 259 259 259 259 260 261 260 260 259 259 258 257 256 255 256 258 259 260 259 259 261 262 263 263 263 263 263 262 262 262 261 260 259 260 261 262 263 264
232 233 234 234 234 235 237 237 235 232 231 230 233 235 237 240 241 238 239 243 244 244 245 245 246 245 245 246 247 247 248 247 248 249 251 250 250 253 257 257 255 254 255 257 260 262 260 259 259 259 258 258 258 257 257 258 259 260 261 261 259 258 258 259 260 260 260 260 261 262 264 265 265 265 264 263 263 262 262 261 261 261 262 262 263
231 233 234 235 235 236 238 238 237 234 231 230 232 234 236 238 239 237 239 245 248 248 247 247 247 247 247 247 248 248 248 249 249 250 250 249 250 252 254 254 253 251 250 252 256 260 260 258 258 258 257 257 256 255 255 258 259 261 263 264 263 263 261 260 259 259 260 261 261 262 263 264 265 265 265 266 266 266 266 266 265 265 265 266 266
233 233 234 236 237 238 238 238 238 237 234 231 231 233 235 238 239 240 243 246 248 248 249 249 249 249 249 249 249 249 248 248 249 250 251 250 250 250 252 252 251 250 249 249 252 255 257 258 258 258 258 259 259 258 257 259 260 261 262 263 263 263 263 262 261 260 260 261 261 262 262 263 263 264 264 266 267 268 268 268 269 268 268 268 268
234 234 234 234 236 237 238 237 237 238 237 236 234 234 236 238 240 243 246 246 245 246 248 249 249 249 250 251 251 250 250 249 249 249 249 250 250 250 250 251 251 250 249 250 252 253 256 258 259 258 259 261 262 262 261 260 260 260 260 260 260 260 260 261 261 261 261 262 262 262 263 263 263 263 264 265 265 265 266 267 268 269 269 269 269
233 234 234 233 233 235 236 237 237 237 238 239 239 239 239 241 242 244 246 246 246 246 247 248 249 249 249 250 251 251 251 251 250 250 250 250 250 250 250 251 251 251 250 250 252 253 254 256 257 257 258 259 261 262 263 263 262 261 260 260 259 259 259 259 259 260 261 263 263 264 264 265 265 265 265 266 266 266 266 267 268 268 268 268 269
233 232 233 232 232 233 234 235 236 236 237 239 241 243 244 244 245 247 248 248 249 248 248 248 249 249 249 249 249 250 251 252 252 252 251 251 250 250 250 250 251 252 252 251 252 253 254 256 257 257 257 257 258 259 261 262 263 263 262 261 261 260 260 260 259 259 261 262 264 265 266 266 266 266 267 267 267 268 268 269 269 269 269 268 268
234 232 232 232 231 231 232 233 235 236 237 239 241 243 244 245 246 248 249 250 250 250 249 247 248 249 249 250 249 250 250 251 252 252 252 252 251 250 250 251 251 252 253 254 254 255 255 257 258 259 259 258 258 258 258 259 261 261 262 262 262 262 262 262 262 262 262 263 264 265 266 267 267 267 267 267 267 268 269 269 270 270 270 270 270
237 235 234 233 233 233 233 233 234 235 237 238 241 243 245 246 246 247 248 249 250 250 249 248 247 247 249 250 251 251 251 251 252 252 252 253 253 252 252 252 252 252 253 254 255 256 256 257 258 259 260 261 260 259 259 260 260 260 260 260 260 261 261 261 262 263 264 265 265 265 266 266 267 267 267 267 267 268 269 269 270 271 271 271 271
239 238 237 236 236 236 237 237 237 237 238 238 239 241 243 245 246 247 248 248 249 250 250 250 249 248 248 249 251 252 253 253 253 253 253 253 253 254 254 254 255 255 254 254 254 255 255 256 257 258 259 261 262 261 261 261 260 260 259 259 259 259 259 259 260 262 263 264 265 265 266 266 266 267 267 268 268 268 268 269 269 269 270 270 271
240 240 240 239 239 239 240 241 241 242 242 242 242 242 243 243 244 246 248 249 250 250 251 251 251 251 251 251 251 252 253 254 254 255 255 255 254 254 255 255 256 256 256 256 255 255 255 256 256 256 256 258 260 261 262 262 262 261 260 260 260 259 260 260 260 261 262 262 263 264 265 265 266 267 268 268 268 268 268 269 268 269 269 269 270
240 240 240 240 240 240 240 242 243 245 246 246 246 246 246 245 244 245 246 248 249 250 251 251 252 252 252 252 253 253 253 254 255 255 256 257 257 256 256 256 256 256 257 257 257 257 257 257 257 257 256 256 257 258 260 262 263 263 263 262 261 261 261 261 261 261 261 261 262 263 264 264 265 266 267 268 268 268 269 269 270 270 270 270 270
241 241 240 240 241 241 241 242 243 245 247 248 248 248 249 249 248 247 247 247 247 248 249 251 252 253 253 254 254 254 254 255 255 256 256 257 258 258 258 258 258 257 257 257 258 258 258 259 259 259 259 259 259 258 259 259 261 262 263 263 263 263 262 262 262 262 262 262 262 263 264 264 265 266 267 268 268 268 269 269 269 270 270 271 271
242 242 241 241 241 241 242 242 243 244 246 248 249 250 250 250 251 250 250 248 247 247 247 248 250 252 253 254 255 255 256 256 256 256 256 257 257 258 259 259 259 259 259 259 258 258 259 259 259 260 260 261 261 261 261 261 261 261 261 262 263 263 263 263 263 264 264 265 265 265 265 265 266 267 269 270 270 270 270 269 269 269 270 270 270
244 243 242 242 242 242 242 242 243 244 245 247 249 250 251 251 251 252 252 251 250 249 249 249 249 249 250 252 253 255 256 256 257 257 257 257 257 258 258 259 260 260 260 260 260 260 260 260 260 260 260 260 261 261 262 262 262 262 262 262 263 263 263 264 264 265 266 266 267 267 267 268 268 269 270 271 272 272 272 271 271 270 270 271 271
248 246 245 244 243 243 243 243 243 244 245 246 247 249 250 251 251 252 252 252 252 251 251 251 251 251 250 250 251 252 253 254 256 257 258 258 258 258 259 259 259 260 260 261 261 262 262 262 262 262 262 262 262 262 262 262 262 263 263 263 264 264 264 265 265 266 266 267 268 268 269 269 270 270 270 271 272 273 273 273 272 272 272 271 271
251 250 249 247 246 245 244 244 244 244 245 245 246 247 248 250 250 251 252 252 252 252 252 252 253 253 252 251 251 251 251 251 252 254 255 257 258 258 259 259 260 260 261 261 262 262 263 263 264 264 264 264 265 265 265 265 264 264 264 264 265 265 266 266 266 267 267 268 268 269 269 270 270 270 271 271 272 272 273 273 272 272 272 272 272
252 251 251 250 250 249 247 246 246 246 246 246 246 247 247 248 250 250 251 251 252 252 253 253 253 254 254 253 252 251 251 251 251 251 252 253 255 256 257 258 259 260 260 261 262 262 263 263 264 264 264 265 265 266 266 267 267 267 267 267 267 267 267 268 268 268 268 268 269 269 270 270 270 270 271 271 272 272 273 273 273 273 273 273 273
251 251 251 251 252 252 251 250 249 248 248 248 248 248 248 249 249 250 251 251 252 252 253 253 253 253 254 254 254 253 252 251 251 251 252 252 252 253 255 256 257 258 259 260 261 261 262 262 263 263 264 264 264 264 265 266 266 267 268 268 269 269 269 269 269 269 269 270 270 270 270 271 271 271 272 272 272 273 274 274 275 275 275 275 275
250 250 250 250 250 251 252 252 252 251 251 250 250 250 250 250 250 251 251 252 252 253 253 253 254 254 254 254 254 254 253 252 252 252 253 253 253 253 253 254 255 256 257 258 259 260 261 261 262 262 263 263 264 264 264 264 264 265 265 266 267 268 269 270 270 271 271 271 271 271 271 271 272 272 273 273 273 274 274 275 275 276 276 276 277
248 248 248 248 248 249 250 251 252 252 253 253 253 253 252 252 252 253 253 253 253 254 254 254 254 254 255 255 255 255 255 254 254 253 253 253 254 255 255 255 255 255 256 256 257 258 258 259 260 261 262 262 263 263 264 264 264 264 264 264 265 265 266 267 268 269 270 271 271 272 272 272 272 273 273 274 274 274 275 275 275 276 276 276 276
246 246 246 247 247 247 248 248 249 251 252 253 254 255 255 255 255 255 255 255 255 255 255 255 255 255 255 255 255 255 256 256 256 255 255 254 254 255 256 257 257 257 257 257 257 257 257 258 258 259 260 260 261 262 262 263 263 263 264 264 264 265 265 265 265 266 267 268 269 270 271 272 272 273 273 273 274 274 274 275 275 275 274 274 274
244 244 245 245 246 246 247 247 248 249 250 251 253 254 255 256 256 257 257 257 257 258 258 258 258 258 258 257 257 257 257 257 257 258 258 257 257 256 256 257 257 258 258 259 259 259 259 259 259 259 259 259 260 260 261 261 262 262 263 264 264 265 265 265 265 266 266 266 267 267 268 269 270 270 271 272 272 272 273 273 273 273 273 273 273
245 244 243 244 245 246 246 247 248 249 250 251 252 253 255 256 257 258 258 259 259 260 260 260 260 260 260 260 260 260 260 260 260 260 260 260 260 260 260 259 259 259 259 259 260 260 260 260 260 260 260 260 260 260 260 261 261 262 263 263 264 265 265 265 266 266 266 266 267 267 267 268 268 269 269 270 270 270 270 271 271 271 272 272 272
247 246 245 245 245 246 247 248 249 250 251 252 253 254 255 256 257 258 259 260 261 261 261 262 262 263 263 263 262 263 262 262 262 262 262 262 263 263 263 263 263 262 262 261 261 261 261 261 261 261 261 261 261 261 261 261 261 261 262 262 263 264 265 265 266 266 266 266 267 267 267 267 268 268 268 269 269 269 270 270 270 270 271 271 271
250 249 248 247 247 247 248 249 250 250 251 252 253 254 255 256 257 258 259 260 261 262 263 263 264 264 265 265 265 265 265 265 265 264 264 264 264 265 265 266 266 266 265 265 264 264 264 263 263 263 263 263 263 263 263 262 262 262 262 262 262 263 263 264 264 265 265 266 266 266 267 267 267 267 268 268 268 269 269 269 270 270 270 271 271
254 253 252 251 250 250 250 250 251 252 253 253 254 255 256 256 257 258 259 260 261 262 263 264 265 265 266 266 267 267 267 267 267 267 267 267 267 266 267 267 267 267 267 267 267 267 266 266 266 265 265 265 265 264 264 264 264 264 264 264 264 264 264 264 264 264 264 265 265 266 266 266 267 267 267 267 268 268 268 269 269 269 269 270 270
260 258 256 255 254 254 253 253 254 254 255 255 256 257 257 258 258 259 260 261 262 263 263 264 265 266 266 267 268 268 269 269 269 269 269 269 269 269 269 269 268 268 268 269 268 268 268 268 268 268 268 267 267 267 267 267 267 267 267 267 266 266 266 266 265 265 265 265 265 266 266 266 266 266 267 267 267 267 268 268 268 269 269 269 269
271 268 265 262 260 259 258 258 258 258 258 258 258 259 259 260 260 261 262 263 263 264 264 265 266 266 267 268 268 269 269 270 270 270 271 271 271 271 271 271 271 270 270 270 270 270 270 270 270 270 269 269 269 269 269 269 269 269 269 269 269 269 269 269 268 268 268 268 268 267 267 267 267 267 267 267 267 267 267 267 267 267 267 268 268
282 279 276 272 269 267 266 264 264 263 263 263 263 263 263 263 263 264 264 265 265 266 266 267 267 267 268 269 269 270 270 271 271 272 272 272 272 272 273 273 273 273 273 273 272 272 272 272 271 271 271 271 271 271 271 271 271 271 271 271 271 271 271 271 271 270 270 270 270 270 269 269 269 269 269 269 268 268 268 268 268 268 267 267 267
292 288 285 282 280 278 275 274 272 271 271 270 270 269 269 268 268 268 268 268 269 269 270 270 270 271 271 271 271 272 272 273 273 274 274 274 274 274 274 274 274 274 274 274 274 274 274 273 273 273 273 273 273 272 272 272 272 272 272 272 272 272 272 271 271 271 271 271 271 271 271 271 271 271 270 270 270 270 270 269 269 269 269 268 268
296 294 291 289 287 285 284 283 282 281 280 279 278 277 276 276 276 275 275 275 275 275 275 275 275 275 275 275 275 275 276 276 276 276 276 276 276 276 276 277 277 277 276 276 276 276 276 276 276 275 275 275 275 275 275 275 275 274 274 274 274 273 273 272 272 272 272 272 272 272 272 272 272 272 272 272 271 271 271 271 270 270 270 269 269
295 295 294 293 292 291 290 289 288 287 285 284 283 282 282 281 280 279 279 278 278 278 278 278 278 278 278 278 278 278 278 278 278 278 278 279 279 279 279 279 279 279 279 279 279 279 279 279 279 278 278 278 278 278 278 278 277 277 277 276 276 275 275 274 274 273 273 273 273 273 272 272 272 272 272 272 272 272 272 272 272 271 271 270 270
Height
10982 10982 10982 10982 10982 10982 10982 10982 10981 10981 10980 10979 10979 10979 10979 10979 10980 10981 10982 10982 10983 10984 10985 10986 10988 10989 10990 10991 10991 10992 10993 10993 10994 10994 10994 10994 10995 10995 10995 10995 10996 10996 10996 10997 10997 10998 10998 10998 10999 10999 10999 10999 10999 11000 11000 11000 11000 11000 11000 11000 11000 11000 10999 10999 10999 10998 10998 10998 10998 10998 10998 10997 10997 10996 10996 10995 10994 10994 10993 10992 10992 10992 10992 10992 10991
10980 10981 10981 10981 10982 10982 10982 10982 10982 10982 10981 10981 10980 10980 10980 10981 10982 10982 10983 10984 10984 10985 10985 10986 10987 10987 10988 10989 10990 10991 10992 10992 10993 10993 10994 10994 10994 10995 10995 10995 10995 10996 10996 10997 10997 10998 10999 10999 11000 11000 11000 11001 11001 11001 11001 11001 11001 11000 11000 11000 11000 11000 11000 11000 10999 10999 10999 10999 10999 10999 10999 10999 10998 10998 10997 10997 10996 10996 10995 10995 10994 10994 10993 10993 10992
10976 10978 10979 10979 10980 10981 10981 10982 10982 10982 10981 10981 10980 10980 10980 10981 10981 10982 10983 10984 10985 10985 10986 10986 10987 10987 10988 10988 10988 10989 10990 10991 10992 10992 10993 10993 10994 10994 10994 10995 10995 10996 10996 10997 10997 10998 10999 10999 11000 11001 11001 11001 11001 11001 11001 11001 11001 11001 11001 11000 11000 11000 11000 11000 11000 11000 11000 11000 11000 11000 11000 11000 11000 10999 10999 10998 10998 10998 10997 10996 10996 10995 10995 10994 10993
10970 10974 10976 10977 10979 10980 10980 10981 10981 10981 10981 10981 10980 10980 10980 10979 10980 10980 10981 10982 10983 10983 10984 10985 10986 10987 10988 10988 10989 10989 10989 10989 10990 10991 10992 10993 10993 10994 10994 10994 10995 10995 10995 10996 10997 10998 10999 11000 11000 11001 11002 11002 11002 11002 11002 11002 11002 11002 11002 11001 11001 11001 11001 11001 11001 11001 11001 11001 11001 11001 11001 11001 11001 11000 11000 11000 10999 10999 10998 10998 10997 10996 10996 10996 10995
10966 10970 10973 10975 10976 10978 10978 10979 10980 10980 10980 10980 10980 10980 10979 10979 10979 10979 10980 10980 10981 10981 10982 10983 10984 10985 10986 10987 10988 10989 10989 10989 10989 10990 10991 10992 10993 10993 10993 10993 10993 10993 10994 10994 10996 10997 10998 10999 11000 11001 11001 11002 11002 11002 11002 11002 11002 11002 11002 11002 11002 11001 11001 11001 11001 11001 11001 11001 11001 11001 11001 11001 11001 11001 11001 11001 11000 11000 10999 10999 10998 10998 10997 10997 10996
10965 10967 10970 10973 10974 10975 10976 10977 10977 10978 10978 10978 10978 10978 10978 10978 10978 10978 10978 10979 10979 10980 10981 10982 10983 10983 10984 10984 10986 10987 10988 10989 10989 10989 10990 10990 10991 10992 10992 10992 10992 10992 10992 10993 10994 10996 10997 10998 10999 10999 11000 11001 11002 11002 11002 11002 11002 11002 11001 11001 11001 11001 11001 11001 11001 11001 11001 11001 11001 11001 11001 11001 11001 11001 11001 11001 11001 11000 11000 11000 10999 10999 10998 10997 10997
10964 10965 10967 10971 10971 10971 10972 10974 10974 10975 10975 10976 10976 10976 10976 10976 10976 10977 10977 10977 10977 10978 10980 10981 10981 10982 10982 10982 10983 10984 10985 10986 10988 10988 10988 10989 10989 10990 10990 10990 10990 10991 10991 10992 10993 10994 10995 10996 10997 10998 10999 11000 11000 11001 11002 11002 11002 11002 11001 11001 11001 11001 11001 11001 11001 11000 11000 11000 11000 11001 11001 11001 11001 11001 11001 11001 11000 11000 11000 10999 10999 10998 10998 10997 10997
10961 10963 10965 10968 10968 10968 10969 10971 10971 10971 10972 10973 10974 10974 10974 10974 10974 10974 10974 10974 10974 10976 10977 10978 10979 10980 10980 10981 10981 10982 10983 10984 10985 10986 10986 10987 10987 10987 10987 10988 10989 10989 10990 10991 10992 10993 10994 10995 10996 10996 10996 10997 10997 10999 11000 11001 11001 11001 11002 11001 11001 11001 11000 11000 11000 10999 10999 10999 10999 10999 11000 11000 11000 11000 11000 11000 10999 10999 10999 10999 10998 10997 10997 10997 10996
10958 10960 10962 10963 10964 10964 10965 10966 10965 10967 10969 10970 10971 10971 10972 10972 10972 10972 10972 10972 10972 10973 10974 10975 10976 10977 10978 10978 10979 10980 10981 10982 10983 10983 10984 10985 10986 10985 10984 10984 10986 10988 10989 10990 10990 10991 10992 10994 10994 10993 10994 10995 10996 10997 10998 10999 10999 11000 11000 11001 11001 11001 11000 11000 10999 10999 10999 10998 10998 10998 10998 10998 10998 10998 10998 10998 10998 10997 10997 10997 10996 10996 10995 10995 10994
10955 10956 10957 10957 10956 10955 10957 10958 10959 10961 10964 10966 10967 10968 10969 10969 10970 10970 10970 10970 10969 10970 10971 10972 10973 10974 10975 10975 10976 10978 10978 10979 10980 10981 10982 10983 10984 10984 10983 10983 10984 10986 10987 10988 10989 10989 10990 10991 10991 10990 10991 10993 10995 10996 10996 10996 10996 10996 10997 10997 10998 10999 10999 10999 10999 10999 10998 10998 10997 10997 10997 10997 10997 10996 10996 10996 10996 10995 10995 10994 10994 10993 10993 10992 10992
10950 10951 10951 10953 10952 10950 10950 10953 10954 10956 10958 10961 10963 10964 10965 10966 10966 10967 10967 10967 10967 10967 10968 10970 10970 10971 10972 10972 10973 10974 10975 10976 10977 10978 10979 10980 10981 10982 10981 10981 10982 10983 10985 10986 10987 10987 10988 10988 10987 10987 10989 10991 10991 10992 10992 10992 10993 10993 10994 10994 10995 10995 10996 10996 10996 10996 10996 10995 10995 10995 10995 10995 10994 10994 10994 10994 10993 10993 10993 10992 10992 10991 10990 10990 10989
10940 10942 10944 10947 10948 10946 10946 10948 10949 10950 10951 10954 10957 10959 10960 10961 10962 10963 10963 10964 10964 10964 10965 10966 10967 10968 10968 10968 10969 10971 10972 10973 10974 10975 10976 10977 10978 10978 10979 10979 10980 10981 10983 10984 10985 10985 10985 10985 10985 10985 10987 10987 10987 10987 10988 10989 10989 10990 10990 10991 10992 10992 10992 10993 10993 10993 10992 10992 10992 10992 10992 10992 10992 10992 10991 10991 10991 10991 10990 10990 10989 10989 10988 10987 10986
10931 10933 10936 10940 10943 10942 10943 10943 10944 10944 10945 10947 10950 10953 10954 10956 10957 10958 10959 10959 10960 10961 10962 10963 10964 10965 10965 10965 10967 10968 10970 10971 10972 10972 10973 10974 10975 10976 10976 10977 10979 10980 10981 10982 10982 10982 10983 10983 10983 10983 10984 10984 10984 10984 10984 10984 10985 10986 10986 10987 10987 10988 10989 10989 10989 10988 10988 10988 10988 10989 10989 10989 10989 10989 10988 10988 10988 10988 10987 10987 10986 10986 10985 10984 10984
10924 10926 10929 10933 10936 10936 10936 10937 10937 10938 10940 10941 10943 10946 10948 10950 10952 10953 10954 10955 10956 10957 10958 10959 10960 10961 10962 10964 10966 10966 10966 10968 10969 10969 10970 10971 10972 10973 10974 10975 10976 10977 10979 10979 10979 10979 10980 10980 10980 10980 10980 10980 10980 10980 10980 10981 10981 10981 10982 10983 10983 10984 10984 10984 10984 10984 10983 10984 10984 10985 10985 10985 10985 10985 10985 10985 10985 10985 10984 10983 10983 10983 10982 10981 10981
10918 10920 10922 10925 10928 10929 10929 10930 10931 10933 10935 10936 10938 10940 10942 10944 10946 10948 10949 10950 10951 10952 10954 10955 10956 10956 10958 10962 10963 10962 10963 10964 10965 10966 10967 10968 10969 10970 10971 10972 10974 10974 10975 10976 10976 10976 10976 10976 10976 10976 10976 10975 10975 10976 10977 10977 10977 10978 10979 10979 10979 10979 10980 10980 10980 10979 10979 10979 10980 10980 10981 10981 10981 10981 10982 10981 10981 10981 10980 10980 10979 10979 10978 10978 10978
10912 10913 10915 10917 10920 10922 10923 10925 10927 10929 10930 10932 10933 10935 10936 10937 10940 10942 10943 10945 10946 10948 10949 10951 10952 10953 10954 10956 10958 10958 10959 10960 10962 10963 10964 10965 10966 10967 10968 10969 10970 10971 10972 10972 10972 10970 10970 10971 10971 10972 10971 10971 10971 10972 10973 10974 10974 10975 10975 10975 10975 10975 10976 10976 10976 10976 10975 10975 10975 10976 10976 10977 10977 10977 10977 10978 10977 10977 10976 10975 10975 10976 10975 10974 10974
10904 10907 10909 10911 10913 10915 10917 10919 10922 10923 10924 10926 10928 10929 10929 10931 10933 10936 10938 10939 10940 10942 10944 10946 10947 10949 10950 10950 10952 10954 10956 10957 10958 10959 10961 10961 10962 10963 10964 10965 10967 10967 10968 10968 10964 10962 10963 10965 10966 10966 10967 10967 10967 10968 10968 10969 10970 10970 10970 10970 10970 10971 10972 10972 10972 10971 10971 10971 10971 10971 10971 10972 10972 10972 10972 10973 10973 10973 10972 10970 10971 10971 10971 10970 10970
10897 10901 10903 10905 10907 10909 10910 10913 10914 10915 10917 10920 10921 10922 10924 10925 10928 10930 10932 10933 10934 10936 10938 10940 10942 10944 10945 10945 10947 10949 10951 10952 10953 10954 10956 10957 10958 10959 10960 10962 10962 10963 10963 10961 10956 10956 10958 10959 10959 10961 10962 10962 10963 10964 10963 10964 10964 10965 10965 10965 10966 10966 10967 10967 10967 10967 10966 10966 10966 10966 10966 10967 10967 10967 10967 10967 10967 10967 10966 10965 10966 10966 10966 10965 10965
10891 10894 10896 10898 10900 10902 10904 10906 10907 10908 10911 10913 10914 10916 10918 10920 10922 10924 10925 10927 10929 10930 10932 10934 10936 10938 10939 10940 10941 10943 10945 10947 10948 10949 10951 10953 10954 10956 10957 10958 10959 10959 10959 10956 10953 10953 10955 10955 10954 10955 10956 10956 10957 10958 10958 10958 10959 10959 10960 10960 10961 10962 10962 10962 10962 10962 10962 10961 10961 10961 10961 10961 10962 10962 10962 10961 10961 10961 10960 10960 10960 10961 10961 10960 10959
10883 10886 10888 10891 10893 10895 10896 10898 10900 10901 10904 10906 10907 10909 10912 10913 10915 10917 10919 10921 10922 10924 10926 10928 10929 10931 10933 10934 10935 10937 10938 10940 10942 10943 10945 10947 10949 10951 10952 10953 10954 10954 10954 10953 10951 10950 10951 10951 10951 10950 10950 10950 10950 10950 10952 10953 10953 10953 10954 10955 10956 10956 10956 10956 10956 10956 10956 10956 10956 10956 10956 10956 10956 10956 10956 10955 10955 10955 10955 10954 10954 10955 10954 10953 10953
10876 10878 10880 10883 10885 10887 10889 10891 10892 10894 10896 10898 10899 10901 10903 10905 10907 10909 10911 10914 10915 10917 10919 10921 10922 10924 10926 10927 10928 10930 10931 10934 10936 10937 10939 10941 10943 10945 10946 10947 10947 10947 10948 10949 10947 10946 10946 10946 10945 10944 10944 10943 10943 10944 10946 10946 10947 10948 10949 10949 10950 10950 10950 10950 10949 10950 10950 10950 10951 10951 10951 10950 10950 10950 10949 10949 10949 10949 10949 10949 10948 10948 10948 10947 10946
10868 10871 10873 10875 10877 10879 10881 10882 10883 10886 10888 10890 10892 10894 10895 10897 10899 10901 10904 10907 10908 10910 10911 10913 10915 10917 10919 10920 10922 10923 10924 10926 10928 10930 10932 10934 10936 10937 10939 10939 10940 10941 10942 10942 10941 10940 10939 10939 10938 10938 10938 10937 10937 10938 10940 10941 10942 10943 10943 10943 10943 10943 10942 10942 10942 10942 10943 10943 10944 10944 10944 10944 10944 10944 10943 10943 10943 10943 10942 10942 10942 10941 10941 10941 10940
10860 10862 10864 10866 10868 10870 10872 10874 10875 10878 10880 10882 10884 10886 10888 10889 10890 10893 10896 10899 10901 10903 10904 10905 10907 10909 10911 10913 10914 10916 10917 10919 10920 10922 10924 10926 10928 10929 10930 10931 10932 10933 10934 10933 10934 10934 10934 10932 10931 10931 10931 10931 10930 10930 10932 10934 10935 10936 10936 10936 10935 10935 10935 10934 10934 10934 10935 10935 10936 10936 10936 10936 10937 10937 10937 10936 10936 10936 10936 10935 10935 10935 10935 10934 10933
10850 10851 10852 10855 10858 10860 10863 10865 10867 10870 10871 10873 10875 10877 10879 10881 10883 10884 10887 10890 10893 10895 10896 10897 10898 10900 10903 10905 10906 10908 10910 10911 10912 10914 10915 10917 10919 10920 10922 10922 10923 10924 10925 10925 10925 10926 10926 10925 10923 10923 10923 10923 10922 10922 10923 10925 10926 10927 10927 10927 10927 10927 10927 10927 10927 10928 10927 10927 10927 10927 10927 10928 10929 10929 10929 10929 10928 10928 10928 10928 10928 10928 10928 10927 10926
10839 10839 10841 10845 10848 10850 10853 10855 10858 10860 10863 10864 10866 10868 10870 10873 10875 10876 10878 10880 10883 10886 10888 10888 10889 10891 10893 10896 10898 10899 10901 10903 10904 10905 10906 10908 10909 10911 10912 10913 10913 10914 10915 10915 10916 10916 10916 10915 10914 10914 10914 10914 10914 10914 10914 10915 10916 10917 10917 10917 10918 10919 10919 10919 10919 10920 10920 10919 10919 10919 10919 10919 10920 10921 10921 10920 10920 10919 10919 10920 10920 10920 10920 10919 10918
10826 10829 10832 10835 10837 10840 10843 10845 10848 10851 10853 10855 10857 10859 10861 10864 10866 10868 10869 10871 10873 10875 10878 10880 10881 10881 10883 10885 10887 10889 10892 10893 10895 10896 10897 10898 10899 10901 10902 10903 10903 10904 10905 10905 10906 10906 10906 10905 10905 10904 10904 10905 10905 10905 10906 10906 10907 10907 10908 10908 10909 10909 10910 10910 10910 10911 10911 10911 10911 10911 10911 10911 10911 10912 10912 10911 10911 10910 10910 10910 10911 10910 10910 10910 10909
10814 10818 10822 10825 10827 10829 10832 10835 10837 10840 10843 10845 10847 10850 10852 10855 10857 10859 10860 10862 10863 10865 10867 10869 10871 10872 10873 10875 10876 10878 10880 10882 10884 10885 10886 10887 10889 10890 10891 10892 10894 10895 10896 10896 10896 10896 10896 10896 10895 10895 10894 10894 10894 10895 10896 10897 10898 10898 10898 10899 10899 10899 10900 10900 10901 10901 10901 10901 10901 10901 10901 10901 10901 10901 10901 10901 10901 10901 10901 10901 10901 10901 10900 10899 10899
10802 10806 10810 10814 10816 10818 10821 10824 10826 10829 10832 10835 10838 10840 10842 10845 10847 10849 10851 10852 10854 10855 10857 10859 10861 10862 10864 10865 10866 10867 10869 10870 10872 10874 10875 10877 10878 10879 10880 10881 10882 10884 10885 10886 10887 10886 10886 10885 10885 10885 10884 10883 10883 10884 10886 10887 10887 10887 10888 10889 10889 10889 10889 10890 10890 10891 10891 10891 10891 10891 10891 10892 10891 10891 10891 10891 10891 10891 10892 10891 10891 10891 10890 10889 10889
10790 10794 10798 10802 10805 10807 10809 10811 10814 10817 10820 10823 10826 10829 10832 10835 10837 10839 10841 10842 10844 10846 10847 10849 10851 10852 10854 10855 10856 10857 10858 10858 10860 10861 10862 10864 10866 10868 10869 10870 10871 10872 10873 10874 10875 10875 10875 10875 10875 10875 10874 10873 10873 10873 10874 10875 10875 10876 10877 10877 10877 10877 10878 10879 10879 10880 10880 10880 10880 10881 10881 10881 10881 10881 10881 10881 10881 10881 10881 10881 10881 10881 10880 10880 10879
10777 10781 10785 10789 10792 10795 10797 10799 10801 10804 10807 10810 10814 10817 10820 10823 10826 10828 10830 10832 10833 10835 10837 10839 10840 10842 10843 10844 10845 10846 10847 10848 10849 10850 10850 10851 10853 10855 10857 10858 10859 10859 10860 10861 10862 10862 10863 10863 10863 10863 10864 10863 10863 10863 10863 10863 10863 10864 10865 10865 10865 10865 10866 10866 10867 10867 10868 10868 10868 10869 10870 10871 10870 10870 10870 10870 10870 10871 10871 10871 10871 10871 10870 10869 10869
10765 10768 10772 10776 10779 10783 10786 10788 10790 10791 10794 10797 10801 10805 10808 10810 10813 10816 10819 10821 10822 10824 10826 10828 10829 10830 10832 10832 10834 10835 10836 10837 10838 10839 10839 10840 10840 10841 10842 10844 10845 10846 10847 10848 10848 10849 10850 10851 10851 10851 10851 10851 10851 10851 10852 10851 10851 10852 10852 10852 10852 10853 10854 10853 10854 10854 10855 10855 10855 10857 10858 10858 10858 10858 10858 10859 10859 10860 10861 10861 10860 10860 10858 10857 10856
10753 10756 10760 10763 10767 10770 10773 10775 10778 10780 10782 10785 10789 10792 10795 10798 10800 10802 10805 10808 10810 10812 10814 10816 10817 10818 10819 10820 10822 10824 10825 10826 10826 10827 10828 10828 10829 10829 10829 10829 10830 10831 10832 10833 10834 10835 10836 10837 10837 10838 10838 10838 10837 10837 10838 10838 10838 10839 10840 10839 10839 10840 10841 10841 10841 10842 10841 10841 10842 10843 10844 10844 10844 10844 10845 10845 10846 10847 10848 10848 10848 10847 10846 10845 10844
10742 10745 10748 10751 10754 10757 10760 10762 10765 10768 10771 10774 10777 10780 10782 10785 10787 10789 10791 10793 10796 10798 10801 10803 10805 10807 10808 10809 10811 10812 10813 10813 10813 10814 10815 10815 10816 10816 10816 10816 10816 10817 10818 10819 10819 10819 10820 10821 10822 10823 10823 10823 10823 10823 10823 10823 10823 10825 10826 10826 10826 10826 10827 10827 10828 10828 10827 10827 10828 10829 10829 10829 10830 10830 10831 10831 10832 10832 10833 10833 10834 10833 10833 10833 10831
10731 10733 10736 10739 10742 10744 10747 10750 10753 10756 10759 10762 10765 10767 10769 10771 10774 10776 10778 10779 10781 10784 10786 10789 10791 10794 10796 10798 10799 10800 10801 10801 10801 10801 10801 10802 10802 10802 10802 10803 10803 10803 10804 10804 10804 10804 10805 10805 10806 10806 10806 10806 10807 10807 10807 10808 10808 10809 10811 10812 10812 10812 10813 10814 10814 10813 10813 10813 10813 10814 10814 10815 10815 10816 10817 10817 10817 10817 10817 10817 10818 10818 10818 10818 10817
10720 10722 10725 10728 10730 10732 10735 10738 10740 10743 10746 10750 10753 10755 10756 10759 10761 10763 10765 10766 10768 10770 10772 10774 10777 10780 10782 10783 10785 10787 10788 10788 10788 10788 10788 10788 10787 10787 10787 10788 10788 10788 10789 10790 10791 10791 10791 10790 10790 10790 10790 10790 10790 10790 10790 10791 10792 10792 10794 10796 10797 10796 10796 10798 10799 10798 10797 10797 10798 10798 10799 10799 10800 10800 10801 10801 10801 10801 10801 10801 10802 10802 10802 10802 10802
10710 10712 10715 10717 10718 10720 10724 10726 10728 10731 10734 10737 10739 10741 10743 10746 10748 10750 10751 10753 10754 10756 10757 10759 10762 10764 10766 10767 10769 10772 10774 10775 10774 10774 10774 10774 10773 10772 10772 10772 10772 10773 10774 10775 10776 10777 10776 10775 10775 10774 10774 10774 10774 10774 10774 10774 10774 10775 10775 10777 10778 10779 10779 10780 10781 10781 10782 10782 10782 10782 10782 10783 10783 10784 10785 10785 10785 10784 10784 10784 10785 10785 10785 10786 10787
10700 10702 10705 10707 10708 10710 10712 10714 10716 10719 10722 10723 10725 10728 10730 10733 10735 10736 10737 10739 10740 10742 10743 10745 10746 10749 10751 10752 10754 10756 10758 10760 10760 10760 10759 10759 10759 10758 10757 10756 10756 10757 10758 10759 10760 10761 10760 10760 10759 10758 10758 10758 10758 10759 10758 10758 10758 10758 10758 10759 10760 10761 10761 10762 10763 10763 10764 10765 10765 10765 10765 10765 10765 10766 10767 10768 10769 10768 10768 10767 10767 10767 10767 10767 10768
10690 10692 10695 10697 10699 10700 10700 10702 10704 10707 10709 10711 10713 10715 10717 10719 10721 10723 10724 10725 10726 10728 10729 10730 10731 10733 10735 10737 10739 10740 10742 10743 10745 10745 10745 10744 10744 10743 10742 10741 10741 10741 10742 10742 10743 10744 10743 10742 10742 10743 10742 10742 10742 10741 10742 10742 10742 10742 10742 10743 10743 10744 10744 10744 10745 10745 10746 10747 10747 10747 10748 10748 10748 10748 10749 10750 10751 10752 10751 10750 10749 10748 10748 10748 10748
10680 10682 10684 10687 10689 10690 10690 10691 10694 10696 10698 10699 10700 10702 10704 10706 10708 10709 10710 10711 10712 10713 10714 10715 10717 10718 10720 10722 10725 10727 10727 10728 10728 10729 10730 10730 10729 10727 10725 10725 10725 10726 10726 10726 10726 10726 10725 10725 10725 10726 10726 10725 10725 10724 10724 10723 10724 10724 10725 10727 10728 10729 10729 10729 10729 10729 10729 10729 10729 10729 10729 10730 10731 10731 10731 10731 10732 10733 10733 10733 10732 10732 10731 10731 10730
10669 10671 10673 10676 10678 10680 10680 10681 10684 10686 10687 10688 10689 10690 10692 10694 10695 10696 10697 10698 10698 10699 10700 10701 10702 10703 10704 10707 10709 10712 10714 10714 10713 10713 10714 10714 10713 10711 10709 10708 10709 10709 10709 10709 10709 10708 10707 10707 10707 10707 10707 10707 10707 10706 10706 10705 10706 10706 10707 10709 10710 10712 10713 10714 10714 10714 10714 10714 10713 10713 10713 10712 10712 10713 10713 10714 10715 10715 10715 10714 10715 10715 10714 10714 10714
10659 10661 10663 10665 10667 10669 10670 10672 10673 10675 10677 10678 10678 10679 10681 10682 10683 10684 10685 10686 10686 10686 10687 10688 10688 10688 10689 10691 10693 10696 10698 10699 10699 10698 10697 10696 10695 10694 10693 10693 10692 10692 10691 10691 10691 10691 10690 10689 10688 10688 10687 10687 10687 10687 10686 10686 10687 10688 10689 10691 10692 10693 10694 10695 10696 10697 10697 10698 10697 10697 10696 10696 10695 10695 10696 10696 10697 10697 10696 10696 10696 10696 10696 10696 10696
10650 10652 10654 10656 10657 10659 10660 10662 10664 10665 10667 10668 10668 10669 10670 10671 10671 10672 10673 10674 10674 10675 10675 10676 10676 10676 10675 10676 10678 10680 10682 10682 10682 10682 10681 10680 10678 10678 10677 10676 10676 10675 10674 10674 10674 10673 10672 10670 10669 10668 10667 10667 10667 10666 10666 10667 10668 10669 10670 10672 10673 10674 10675 10676 10677 10677 10678 10678 10678 10678 10678 10678 10677 10677 10678 10678 10678 10678 10678 10678 10678 10678 10678 10678 10677
10642 10644 10646 10647 10649 10650 10651 10653 10654 10656 10657 10658 10658 10659 10660 10660 10660 10661 10661 10662 10662 10662 10663 10664 10664 10664 10663 10663 10664 10666 10666 10666 10666 10666 10666 10665 10664 10662 10660 10659 10658 10657 10657 10657 10656 10655 10653 10651 10650 10649 10647 10646 10646 10645 10645 10646 10648 10649 10651 10653 10654 10655 10656 10656 10656 10656 10656 10656 10657 10658 10658 10658 10658 10658 10658 10658 10658 10657 10657 10658 10659 10659 10659 10658 10658
10636 10637 10638 10639 10641 10642 10643 10644 10645 10646 10647 10648 10649 10649 10650 10650 10650 10650 10650 10650 10650 10651 10651 10652 10652 10651 10650 10650 10651 10652 10652 10652 10651 10651 10650 10650 10649 10648 10646 10644 10642 10640 10639 10639 10638 10636 10634 10632 10630 10629 10627 10626 10625 10624 10624 10625 10627 10630 10632 10634 10636 10636 10636 10636 10635 10635 10635 10635 10635 10636 10636 10637 10637 10637 10637 10637 10637 10636 10637 10638 10639 10639 10639 10638 10637
10629 10630 10631 10632 10633 10634 10635 10636 10637 10637 10638 10638 10639 10640 10640 10640 10640 10640 10640 10639 10640 10640 10641 10641 10641 10639 10638 10637 10637 10638 10638 10638 10637 10637 10635 10634 10634 10633 10631 10629 10627 10624 10622 10621 10619 10617 10615 10613 10611 10609 10608 10606 10604 10603 10603 10604 10606 10608 10610 10612 10614 10614 10615 10615 10614 10614 10614 10614 10613 10613 10614 10615 10615 10615 10615 10614 10614 10615 10615 10616 10617 10618 10618 10617 10616
10623 10623 10624 10625 10626 10627 10627 10628 10629 10629 10630 10630 10630 10630 10630 10630 10630 10630 10629 10629 10629 10629 10629 10629 10629 10628 10626 10624 10624 10624 10624 10623 10623 10622 10621 10619 10618 10617 10616 10614 10611 10609 10606 10604 10601 10599 10596 10594 10592 10590 10588 10586 10584 10583 10584 10584 10585 10586 10588 10589 10589 10590 10590 10591 10591 10591 10592 10592 10591 10591 10591 10591 10592 10593 10593 10592 10592 10593 10593 10594 10595 10595 10595 10594 10594
10617 10618 10618 10619 10619 10620 10620 10621 10621 10621 10621 10621 10621 10621 10621 10620 10620 10620 10620 10619 10618 10617 10617 10617 10616 10616 10614 10612 10611 10611 10610 10609 10608 10607 10606 10605 10603 10601 10599 10597 10595 10593 10590 10588 10585 10582 10579 10576 10573 10571 10568 10566 10565 10564 10564 10564 10565 10565 10566 10566 10566 10566 10565 10565 10565 10565 10566 10566 10565 10565 10565 10565 10566 10568 10568 10569 10569 10570 10570 10570 10571 10571 10571 10571 10572
10612 10613 10612 10612 10613 10613 10613 10614 10614 10613 10613 10613 10613 10612 10611 10611 10610 10610 10610 10608 10607 10606 10605 10604 10604 10603 10601 10600 10598 10597 10597 10596 10595 10593 10591 10590 10588 10586 10584 10581 10579 10577 10575 10572 10569 10566 10562 10559 10556 10552 10549 10547 10546 10546 10545 10544 10544 10545 10545 10545 10544 10543 10542 10540 10540 10539 10539 10538 10537 10537 10537 10537 10539 10540 10541 10542 10543 10544 10544 10544 10544 10545 10546 10547 10548
10608 10607 10607 10607 10607 10607 10607 10607 10607 10606 10606 10605 10604 10603 10603 10602 10601 10601 10600 10598 10597 10596 10594 10593 10591 10590 10589 10587 10586 10585 10584 10583 10582 10580 10578 10576 10574 10572 10570 10567 10564 10562 10559 10556 10553 10549 10546 10542 10539 10535 10532 10530 10528 10527 10526 10525 10525 10525 10524 10523 10522 10521 10519 10517 10516 10515 10513 10511 10510 10509 10509 10509 10510 10511 10512 10514 10515 10515 10515 10516 10516 10517 10519 10521 10522
10603 10602 10601 10601 10601 10601 10601 10601 10600 10600 10599 10598 10597 10595 10594 10593 10593 10592 10590 10589 10587 10586 10584 10582 10580 10579 10577 10576 10574 10573 10572 10570 10569 10567 10565 10563 10561 10559 10556 10553 10550 10547 10544 10540 10537 10534 10530 10527 10523 10519 10515 10513 10511 10509 10507 10506 10505 10504 10503 10501 10499 10498 10497 10495 10494 10492 10490 10488 10486 10485 10485 10484 10484 10485 10485 10486 10487 10486 10486 10486 10487 10488 10490 10493 10494
10598 10597 10596 10596 10596 10595 10595 10595 10594 10594 10593 10591 10590 10588 10586 10585 10584 10583 10582 10580 10578 10577 10575 10573 10570 10568 10566 10565 10563 10563 10561 10559 10557 10554 10553 10551 10549 10546 10543 10540 10536 10533 10529 10526 10523 10519 10516 10512 10507 10503 10499 10496 10494 10492 10489 10487 10485 10483 10482 10480 10478 10477 10475 10473 10472 10470 10468 10466 10465 10464 10463 10463 10463 10463 10463 10463 10463 10462 10461 10460 10460 10461 10462 10464 10466